Погода в Ирдоматке

Россия / Вологодская область     59°06′54″N   38°05′56″E
темп.,
°C
ветер,
м/с
пор.,
м/с
влажн.,
%
обл.,
%
осадки,
мм/ч
давл.,
гПа
погр.,
м
17 мая, пн
пн1700:00+12зюз229134 0.0 101235
03:00+11ююз22952 0.0 101332
06:00+11юз11930 0.0 101539
09:00+14юв118051 0.0 1016215
12:00+15ююв336795 0.1 1017600
15:00+16юв346238 0.1 1016604
18:00+18вюв366298 0.0 1014714
21:00+16в497844 0.0 1014210
18 мая, вт
вт1800:00+15в5138564 0.6 1013287
03:00+14юв5128868 0.7 1013242
06:00+14юв5118585 0.0 1012252
09:00+18юв5126524 0.0 1012423
12:00+20ююв7135824 0.0 1012798
15:00+21юв7115511 0.0 10111278
18:00+20юв7136235 0.0 1011892
21:00+18юв6157015 0.0 1011469
19 мая, ср
ср1900:00+17юв615725 0.0 1011454
03:00+15юв513770 0.0 1011303
06:00+16юв614776 0.0 1011364
09:00+18юв6136465 0.0 1011480
12:00+19ююв7126027 0.0 1011713
15:00+21юв7135620 0.0 10101601
18:00+21юв814564 0.0 10081355
21:00+19юв717685 0.3 1009715
20 мая, чт
чт2000:00+16юв6148863 5.0 1010380
03:00+15юв51292100 6.8 1010287
06:00+13вюв4696100 0.9 1010141
09:00+17юв487836 0.9 1009421
12:00+20ююв6106123 0.0 1008958
15:00+20ююв6115498 0.0 10071443
18:00+18юв5127271 0.8 1006884
21:00+16юв51382100 1.9 1006639
21 мая, пт
пт2100:00+15юв5118891 0.3 1005371
03:00+13юв5996100 1.2 1004351
06:00+12юв5119542 0.2 1004360
09:00+13ююв7128571 0.7 1003705
12:00+13ююв71172100 0.3 1004931
15:00+14ю7126652 0.4 10041057
18:00+11ю51074100 0.0 1003617
21:00+10ю4981100 0.0 1003493